Location: Ingoldesthorpe
(52.8667°N, 0.5167°E)
Time: 04:27:31
(UTC+00:00)

Cosmos 1821 Rocket - Pass Details

Date: 19 May 2025
Orbit: 943 x 1004 km, 82.9° (Epoch: 13 June)

Event Time Altitude Azimuth Distance (km) Brightness Sun altitude
Rises 22:11:43 0° 347° (NNW) 3,645 8.7 -13.8°
Reaches altitude 10° 22:14:14 10° 345° (NNW) 2,689 7.7 -14.0°
Maximum altitude 22:20:18 65° 265° (W) 1,037 4.2 -14.3°
Enters shadow 22:25:07 16° 187° (S) 2,227 5.4 -14.6°
